Overview Statistics Trail Chart Weather Telemetry Raw packets
 

This is the latest recevied weather packets stored in our database for station/object W6MAF. If no packets are shown the sender has not sent any weather packets the latest 10 day(s).

<< 33 34 35 36 37 38 39 >>
Time Temp. Humidity Pressure Rain* Wind** Luminosity Snow
1788436161 12.78° C 51% - 0 mm 6.26 m/s, 217° - -
1788435864 12.78° C 50% - 0 mm 5.36 m/s, 205° - -
1788435566 12.78° C 50% - 0 mm 6.26 m/s, 219° - -
1788435265 12.78° C 50% - 0 mm 5.81 m/s, 190° - -
1788434967 13.33° C 50% - 0 mm 4.92 m/s, 224° - -
1788434670 13.33° C 50% - 0 mm 5.81 m/s, 229° - -
1788434372 12.78° C 50% - 0 mm 4.92 m/s, 207° - -
1788434075 13.33° C 49% - 0 mm 5.36 m/s, 208° - -
1788433776 13.33° C 50% - 0 mm 5.81 m/s, 211° - -
1788433178 13.33° C 49% - 0 mm 4.92 m/s, 212° - -
1788432880 13.33° C 49% - 0 mm 4.02 m/s, 232° - -
1788432582 13.33° C 48% - 0 mm 5.81 m/s, 215° - -
1788432285 13.33° C 48% - 0 mm 4.47 m/s, 224° - -
1788432285 13.33° C 48% - 0 mm 4.47 m/s, 224° - -
1788431987 13.33° C 47% - 0 mm 4.47 m/s, 231° - -
1788431686 13.33° C 47% - 0 mm 2.24 m/s, 205° - -
1788431388 13.33° C 46% - 0 mm 3.58 m/s, 233° - -
1788431124 13.33° C 46% - 0 mm 4.92 m/s, 233° - -
1788431091 13.33° C 46% - 0 mm 4.92 m/s, 233° - -
1788430793 13.33° C 45% - 0 mm 3.58 m/s, 218° - -
1788430495 13.33° C 44% - 0 mm 2.24 m/s, 210° - -
1788430197 13.33° C 43% - 0 mm 3.58 m/s, 210° - -
1788429896 13.33° C 42% - 0 mm 3.13 m/s, 212° - -
1788429599 13.89° C 42% - 0 mm 2.24 m/s, 215° - -
1788429301 13.89° C 41% - 0 mm 4.02 m/s, 214° - -

* Rain latest hour (hover to see other rain measurements)
** Current wind speed in m/s (hover to see current wind gust speed)